Regional Weather Roundup
Issued by NWS

Home | Current Version | Previous Version | Graphics & Text | Print | Product List | Glossary On
Versions: 1 2 3 4 5 6 7 8 9 10 11 12 13 14 15 16 17 18 19 20 21 22 23 24 25 26 27 28 29 30 31 32 33 34 35 36 37 38 39 40 41 42 43 44 45 46 47 48 49 50
000
ASUS43 KLOT 222200
RWRIL

ILLINOIS REGIONAL WEATHER ROUNDUP
NATIONAL WEATHER SERVICE CHICAGO/ROMEOVILLE IL
400 PM CST MON DEC 22 2014

NOTE: "FAIR" INDICATES FEW OR NO CLOUDS BELOW 12,000 FEET WITH NO
SIGNIFICANT WEATHER AND/OR OBSTRUCTIONS TO VISIBILITY.

* THESE STATIONS ARE NOT UNDER NWS QUALITY CONTROL. THEY ALSO MAY NOT
  REPORT WEATHER SUCH AS PRECIPITATION OR FOG.

ILZ001-002-007-009-015-016-024-222300-
NORTHWEST ILLINOIS

CITY           SKY/WX    TMP DP  RH WIND       PRES   REMARKS
MOLINE         CLOUDY    39  37  92 E7        29.57F FOG     WCI  34
STERLING*      CLOUDY    37  34  87 SE10      29.61F WCI  30
$$

ILZ003-004-008-010-011-017-018-222300-
NORTH CENTRAL ILLINOIS

CITY           SKY/WX    TMP DP  RH WIND       PRES   REMARKS
ROCKFORD       LGT RAIN  37  34  89 E12       29.66R FOG     WCI  29
$$

ILZ005-006-012>014-019>023-222300-
NORTHEAST ILLINOIS

CITY           SKY/WX    TMP DP  RH WIND       PRES   REMARKS
CHICAGO-OHARE  LGT RAIN  37  35  92 E10       29.69F FOG     WCI  30
CHICAGO-MIDWAY LGT RAIN  40  38  93 SE13      29.71F FOG
AURORA         LGT RAIN  39  36  89 E16       29.66F FOG     WCI  30
WAUKEGAN       LGT RAIN  36  34  92 E13       29.71F FOG     WCI  27
DUPAGE AIRPORT LGT RAIN  38  36  92 E8        29.68S FOG     WCI  32
WHEELING       LGT RAIN  37  35  92 E12       29.72F FOG     WCI  29
NORTHERLY ISL    N/A     37  35  92 E10         N/A  WCI  30
$$

LMZ740>746-222300-
SOUTHERN LAKE MICHIGAN

STATION/POSITION SKY/WX   TEMP    WIND        PRES    VSBY  WAVE
                          AIR SEA DIR/SP/G                  HT/PER
                          (F)     (DEG/KT/KT) (MB)    (MI)  (FT/S)
WAUKEGAN HARBOR            36     120/ 13/ 17   N/A
HARRISON CRIB              37     110/ 16/ 18   N/A
BURNHAM HARBOR             36     110/ 10       N/A
CALUMET HARBOR             38     100/ 13/ 18 1005.3F
$$

ILZ025>027-034>036-040-047-049-050-058-095>099-222300-
WEST-CENTRAL ILLINOIS

CITY           SKY/WX    TMP DP  RH WIND       PRES   REMARKS
QUINCY         CLOUDY    44  42  93 SE10      29.52F FOG
$$

ILZ028>032-037-038-041>044-048-051>054-059>061-222300-
CENTRAL ILLINOIS

CITY           SKY/WX    TMP DP  RH WIND       PRES   REMARKS
DECATUR        LGT RAIN  46  45  96 SE13      29.62F FOG
PEORIA         CLOUDY    44  41  89 SE9       29.59F
SPRINGFIELD    LGT RAIN  46  45  96 SE12      29.59F FOG
TAYLORVILLE    NOT AVBL
$$

ILZ033-039-045-046-055>057-062-063-222300-
EAST-CENTRAL ILLINOIS

CITY           SKY/WX    TMP DP  RH WIND       PRES   REMARKS
CHAMPAIGN      CLOUDY    44  42  93 SE16      29.63F FOG
MATTOON        LGT RAIN  45  43  93 SE15      29.63F FOG
$$

ILZ079-100>102-222300-
SOUTHWEST ILLINOIS

CITY           SKY/WX    TMP DP  RH WIND       PRES   REMARKS
BELLEVILLE     DRIZZLE   48  48 100 SE8       29.57F
CAHOKIA*       CLOUDY    50  48  93 SE8       29.56S
$$

ILZ064>066-069>071-074>076-080>082-084>086-088>090-092>094-222300-
SOUTH-CENTRAL ILLINOIS

CITY           SKY/WX    TMP DP  RH WIND       PRES   REMARKS
CARBONDALE     LGT RAIN  50  48  93 SE8       29.59F FOG
MARION         RAIN      52  50  93 S12       29.61F
MT. VERNON     CLOUDY    48  45  87 SE7       29.62F
$$

ILZ067-068-072-073-078-083-087-091-222300-
SOUTHEAST ILLINOIS

CITY           SKY/WX    TMP DP  RH WIND       PRES   REMARKS
LAWRENCEVILLE  LGT RAIN  49  46  90 SE15      29.67F FOG
$$

ABBREVIATIONS USED IN REMARKS
   TC - TEMPERATURE IN CELSIUS
  WCI - WIND CHILL INDEX
   HX - HEAT INDEX
  VSB - VISIBILITY
$$



USA.gov is the U.S. government's official web portal to all federal, state and local government web resources and services.